Regional Weather Roundup
Issued by NWS

Home | Current Version | Previous Version | Text Only | Print | Product List | Glossary Off
Versions: 1 2 3 4 5 6 7 8 9 10 11 12 13 14 15 16 17 18 19 20 21 22 23 24 25 26 27 28 29 30 31 32 33 34 35 36 37 38 39 40 41 42 43 44 45 46 47 48 49 50

000
ASUS45 KABQ 220701
RWRNM
WEATHER ROUNDUP FOR NEW MEXICO
NATIONAL WEATHER SERVICE ALBUQUERQUE NM
100 AM MDT WED OCT 22 2014

NOTE: "FAIR" MEANS FEW OR NO CLOUDS BELOW 12,000 FEET AGL WITH NO
       SIGNIFICANT WEATHER OR OBSTRUCTIONS TO VISION.

      THIS PRODUCT IS RELEASED AS TWO VERSIONS.  ONE VERSION NEAR
      THE TOP OF THE HOUR CONTAINING PRELIMINARY DATA FROM ALBUQUERQUE
      AND OTHER STATIONS.  A FINAL VERSION WITH ADDITIONAL DATA IS
      ISSUED ABOUT 10 MINUTES AFTER THE HOUR.

NMZ501-503-504-510>518-220800-
NORTHWEST PLATEAU/NORTHCENTRAL MOUNTAINS

CITY           SKY/WX    TMP DP  RH WIND       PRES   REMARKS
FARMINGTON     CLEAR     51  42  71 E7        30.09R
LOS ALAMOS     CLOUDY    51  44  77 S6        30.19S
SANTA FE       CLOUDY    52  48  86 SE7       30.15S
TAOS           CLOUDY    45  41  87 N5        30.19S
ANGEL FIRE     CLOUDY    41  38  90 W5        30.22S

$$
NMZ402-403-502-505>509-220800-
WESTCENTRAL MOUNTAINS/SOUTHWEST MOUNTAINS

CITY           SKY/WX    TMP DP  RH WIND       PRES   REMARKS
GALLUP         CLEAR     47  43  86 CALM      30.16R
GRANTS         PTCLDY    46  45  93 SW6       30.18S
SILVER CITY    MOCLDY    54  50  87 NE5       30.15R

$$
NMZ407-409-411-412-220800-
SOUTHERN DESERTS

CITY           SKY/WX    TMP DP  RH WIND       PRES   REMARKS
LORDSBURG      FAIR      55  52  88 MISG      30.06S
DEMING         CLEAR     57  54  89 N7        30.08R
HOLLOMAN AFB   PTCLDY    53  51  94 N7        30.08R
T OR C         PTCLDY    55  51  86 W6        30.10R

$$
NMZ519>523-220800-
CENTRAL VALLEYS/CENTRAL HIGHLANDS

CITY           SKY/WX    TMP DP  RH WIND       PRES   REMARKS
ALBUQUERQUE    CLOUDY    57  46  66 CALM      30.11S
DOUBLE EAGLE   CLOUDY    51  47  87 S6        30.13S
MORIARTY ARPT  FOG       48  46  93 SE3       30.17S VSB<1/4
CLINES CORNERS PTCLDY    45  44  97 S8        30.17S FOG
BELEN          NOT AVBL
SOCORRO        FAIR      53  50  90 S6        30.10S

$$
NMZ524>526-539-540-220800-
SOUTHCENTRAL MOUNTAINS

CITY           SKY/WX    TMP DP  RH WIND       PRES   REMARKS
RUIDOSO        FOG       45  45 100 CALM      30.21S VSB<1/4

$$
NMZ527>531-220800-
NORTHEAST HIGHLANDS/NORTHEAST PLAINS

CITY           SKY/WX    TMP DP  RH WIND       PRES   REMARKS
LAS VEGAS      CLOUDY    49  48  97 S12       30.16S FOG
RATON          MOCLDY    48  47  96 CALM      30.10S
CLAYTON        PTCLDY    53  49  86 S14       30.07S

$$
NMZ532>537-220800-
EASTCENTRAL PLAINS

CITY           SKY/WX    TMP DP  RH WIND       PRES   REMARKS
TUCUMCARI      MOCLDY    60  55  83 SW8       30.07S
CANNON AFB     CLOUDY    58  56  94 SW5       30.11S FOG
CLOVIS AIRPORT CLOUDY    59  54  82 SW5       30.13S

$$
NMZ028-029-538-220800-
SOUTHEAST PLAINS

CITY           SKY/WX    TMP DP  RH WIND       PRES   REMARKS
ROSWELL        CLOUDY    62  60  93 S7        30.07S FOG
CARLSBAD       CLOUDY    64  60  87 SE5       30.06S
HOBBS          CLOUDY    61  59  94 S6        30.10F


$$



USA.gov is the U.S. government's official web portal to all federal, state and local government web resources and services.